Terug naar catalogus

GLOBALSTAR M079

ActiefCommunicatieLEO
NORAD 37188·PAYLOAD·🇺🇸 United States

Gelanceerd Oct 19, 2010 vanaf Baikonur Cosmodrome

Loading…

Volgende Passages (komende 24 uur)

TLE

VersSource: Space-Track

Epoch: Sep 14, 2026, 13:25 UTC

1 37188U 10054A   26257.55938463 -.00000089  00000-0  83772-4 0  9991
2 37188  52.0030 196.6076 0000371  93.6960  78.0152 12.62267396733839

Volg GLOBALSTAR M079 in realtime met AllMySat

Download on the App Store